Location: Cisewo
(53.3833°N, 14.9000°E)
Time: 12:09:45
(UTC+00:00)

ARIANE 5 R/B - Pass Details

Date: 18 April 2021
Orbit: 620 x 656 km, 98.1° (Epoch: 11 May)

Event Time Altitude Azimuth Distance (km) Brightness Sun altitude
Exits shadow 20:09:20 24° 167° (SSE) 1,314 3.7 -16.0°
Maximum altitude 20:11:58 85° 255° (WSW) 645 2.6 -16.3°
Drops below altitude 10° 20:16:23 10° 344° (NNW) 2,023 6.2 -16.7°
Sets 20:18:35 0° 345° (NNW) 2,930 7.2 -17.0°
